Regional Weather Roundup
Issued by NWS San Angelo, TX

Home | Current Version | Previous Version | Text Only | Print | Product List | Glossary On
Versions: 1 2 3 4 5 6 7 8 9 10 11 12 13 14 15 16 17 18 19 20 21 22 23 24 25 26 27 28 29 30 31 32 33 34 35 36 37 38 39 40 41 42 43 44 45 46 47 48 49 50
000
ASUS44 KSJT 270158
RWRSJT
WEST CENTRAL TEXAS REGIONAL WEATHER ROUNDUP
NATIONAL WEATHER SERVICE SAN ANGELO TX
900 PM CDT SUN MAR 26 2017

NOTE: "FAIR" INDICATES FEW OR NO CLOUDS BELOW 12,000 FEET WITH NO
SIGNIFICANT WEATHER AND/OR OBSTRUCTIONS TO VISIBILITY.

TXZ049-054-064>066-071>073-076>078-098-099-113-114-127-128-139-140-
154-155-168>170-270300
...LOCATIONS ACROSS WEST CENTRAL TEXAS...

CITY           SKY/WX    TMP DP  RH WIND       PRES   REMARKS
SAN ANGELO     CLEAR     71  30  21 W3        29.77R
ABILENE        CLEAR     73  34  23 S3        29.76S
DYESS AFB      NOT AVBL
JUNCTION       CLEAR     77  54  44 S7        29.76S
SWEETWATER     NOT AVBL
BROWNWOOD      NOT AVBL
COLEMAN        NOT AVBL
SONORA         NOT AVBL
OZONA          NOT AVBL
BRADY          NOT AVBL
$$

TEXAS PANHANDLE/OKLAHOMA PANHANDLE

CITY           SKY/WX    TMP DP  RH WIND       PRES   REMARKS
AMARILLO       CLEAR     48  37  65 N13       29.91R
BORGER         CLEAR     49  38  65 N12       29.90R
CANADIAN       NOT AVBL
DALHART        CLEAR     48  37  65 NE13      29.93R
DUMAS          NOT AVBL
GUYMON         NOT AVBL
HEREFORD       NOT AVBL
PAMPA          NOT AVBL
PERRYTON       NOT AVBL
$$

SOUTHERN PANHANDLE/SOUTH PLAINS/ROLLING PLAINS

CITY           SKY/WX    TMP DP  RH WIND       PRES   REMARKS
LUBBOCK        PTCLDY    67  29  24 N14       29.81R
SNYDER         NOT AVBL
CHILDRESS      CLEAR     67  40  37 N20       29.76R
SEMINOLE       NOT AVBL
$$

PERMIAN BASIN

CITY           SKY/WX    TMP DP  RH WIND       PRES   REMARKS
MIDLAND        CLEAR     71  20  14 W12       29.83R
ODESSA           N/A     71  20  14 W9        29.85R
WINK           CLEAR     70  17  13 W10       29.83R
$$

FAR WEST/SOUTHWEST MOUNTAINS/TRANS PECOS

CITY           SKY/WX    TMP DP  RH WIND       PRES   REMARKS
ALPINE         NOT AVBL
DRYDEN         NOT AVBL
EL PASO        PTCLDY    70  15  12 W10       29.92R
FORT STOCKTON  CLEAR     71  23  16 NW7       29.86R
GUADALUPE PASS NOT AVBL
MARFA          NOT AVBL
PECOS          NOT AVBL
$$

DALLAS/FORT WORTH METROPLEX

CITY           SKY/WX    TMP DP  RH WIND       PRES   REMARKS
DFW AIRPORT    CLOUDY    80  58  46 S22G37    29.68R
FTW MEACHAM    CLOUDY    78  58  49 S22G35    29.70R
DAL-EXECUTIVE  CLOUDY    78  58  49 S15G28    29.70S
GRAND PRAIRIE  CLEAR     79  57  47 S15G21    29.72R
ADDISON        MOCLDY    79  57  47 S15G36    29.69S
MESQUITE       NOT AVBL
LANCASTER      NOT AVBL
$$

NORTH CENTRAL TEXAS

CITY           SKY/WX    TMP DP  RH WIND       PRES   REMARKS
SHRMAN/DENISON NOT AVBL
GAINESVILLE    NOT AVBL
BRIDGEPORT     NOT AVBL
DENTON         CLOUDY    67  63  87 N15       29.74R THUNDER
WAXAHACHIE     NOT AVBL
GRANBURY       NOT AVBL
$$

WESTERN NORTH TEXAS

CITY           SKY/WX    TMP DP  RH WIND       PRES   REMARKS
WICHITA FALLS  CLEAR     67  39  35 SW9       29.66F
VERNON         NOT AVBL
BRECKENRIDGE   NOT AVBL
COMANCHE       NOT AVBL
$$

CENTRAL AND SOUTH CENTRAL TEXAS

CITY           SKY/WX    TMP DP  RH WIND       PRES   REMARKS
AUSTIN/BERGSTM PTCLDY    75  64  68 S8        29.79R
WACO           CLOUDY    76  61  59 SE23G30   29.75R
HILLSBORO      NOT AVBL
TEMPLE         CLOUDY    75  64  68 SE18      29.76R
KILLEEN-GRAY   NOT AVBL
FORT HOOD      NOT AVBL
GEORGETOWN     CLEAR     75  57  53 SE14G21   29.75F
LAGO VISTA     NOT AVBL
SAN MARCOS     NOT AVBL
NEW BRAUNFELS  CLOUDY    76  66  71 S18       29.79R
RANDOLPH AFB   NOT AVBL
SAN ANTONIO    PTCLDY    76  66  71 SE16      29.80R
STINSON        CLOUDY    77  67  71 SE14      29.78R
PLEASANTON     NOT AVBL
LA GRANGE      NOT AVBL
GIDDINGS       NOT AVBL
$$

EAST TEXAS

CITY           SKY/WX    TMP DP  RH WIND       PRES   REMARKS
PARIS          CLOUDY    73  55  53 S10       29.78R
CLARKSVILLE    NOT AVBL
TYLER          CLOUDY    76  56  49 S16G23    29.79S
LONGVIEW       CLOUDY    75  60  59 S13       29.81R
PALESTINE      NOT AVBL
NACOGDOCHES    NOT AVBL
$$

TEXAS HILL COUNTRY AND EDWARDS PLATEAU

CITY           SKY/WX    TMP DP  RH WIND       PRES   REMARKS
LLANO          NOT AVBL
HORSESHOE BAY  NOT AVBL
KERRVILLE      NOT AVBL
FREDERICKSBRG  NOT AVBL
ROCKSPRINGS    NOT AVBL
HONDO          CLEAR     79  60  52 SE12      29.78R
UVALDE         NOT AVBL
DEL RIO        CLEAR     78  49  35 E8        29.73R
$$

SOUTHEAST TEXAS

CITY           SKY/WX    TMP DP  RH WIND       PRES   REMARKS
COLLEGE STN    PTCLDY    75  65  70 S15       29.81R
CALDWELL       NOT AVBL
CROCKETT       NOT AVBL
BRENHAM        NOT AVBL
HUNTSVILLE     PTCLDY    74  64  71 SE9       29.81S
CONROE         MOCLDY    72  65  78 SE16      29.84F
HOUSTON BUSH   MOCLDY    74  65  73 S14       29.86R
HOUSTON HOBBY  PTCLDY    71  67  87 SE5       29.87R
PERLAND        PTCLDY    74  68  81 S8        29.88S
WHARTON        NOT AVBL
$$

THE UPPER TEXAS COAST

CITY           SKY/WX    TMP DP  RH WIND       PRES   REMARKS
ORANGE         NOT AVBL
PORT ARTHUR    MOCLDY    72  67  84 SE14      29.91R
GALVESTON      CLEAR     73  70  90 SE13      29.89R
ANGLETON       CLOUDY    73  68  84 S16       29.86S
BAY CITY       NOT AVBL
$$

TEXAS COASTAL BEND, RIO GRANDE PLAINS DEEP SOUTH TEXAS

CITY           SKY/WX    TMP DP  RH WIND       PRES   REMARKS
VICTORIA       CLOUDY    73  68  84 SE22G29   29.81F
BEEVILLE       NOT AVBL
ROCKPORT       CLEAR     73  69  87 SE18      29.82R
PORT ARANSAS   NOT AVBL
PORT LAVACA    NOT AVBL
CORPUS CHRISTI PTCLDY    74  69  85 SE23      29.79S
KINGSVILLE NAS NOT AVBL
COTULLA        CLEAR     83  60  45 SE10      29.73R
LAREDO         CLEAR     83  66  56 SE15      29.72R
BROWNSVILLE    CLEAR     75  68  78 S14       29.81R
PORT ISABEL    PTCLDY    75  69  81 S13       29.80R
HEBBRONVILLE   NOT AVBL
MCALLEN        MOCLDY    79  69  71 SE24G32   29.78R
WESLACO        NOT AVBL
FALFURRIAS     NOT AVBL
EDINBURG       NOT AVBL
$$



USA.gov is the U.S. government's official web portal to all federal, state and local government web resources and services.